When you browse on this site, cookies collect data to enhance your experience and personalize the content and advertising you see.
Visit our Privacy Policy to learn more. By continuing to use the site, you agree to this use of cookies and data.
  • în România
  • Lista ţărilor
  • Pe 7 zile
  • Temperatura apei
  • Meteo pe hartă
  • Widget-uri
  • user-avatar
    Intrare

    Meteo pe oră la Seoni Malwa

    Astăzi, 24 Ianuarie, Vineri

    Timp Temperatura Precipitaţii Vânt Presiune Umiditate
    00:00 +16°C° 0 mm 2 m/s 735 mmHg 50%
    01:00 +15°C° 0 mm 2 m/s 735 mmHg 51%
    02:00 +15°C° 0 mm 1 m/s 734 mmHg 53%
    03:00 +14°C° 0 mm 2 m/s 734 mmHg 53%
    04:00 +14°C° 0 mm 2 m/s 734 mmHg 54%
    05:00 +14°C° 0 mm 2 m/s 734 mmHg 56%
    06:00 +15°C° 0 mm 2 m/s 734 mmHg 54%
    07:00 +16°C° 0 mm 2 m/s 735 mmHg 51%
    08:00 +16°C° 0 mm 2 m/s 735 mmHg 49%
    09:00 +19°C° 0 mm 2 m/s 735 mmHg 44%
    10:00 +21°C° 0 mm 2 m/s 735 mmHg 38%
    11:00 +25°C° 0 mm 2 m/s 736 mmHg 34%
    12:00 +26°C° 0 mm 2 m/s 735 mmHg 34%
    13:00 +27°C° 0 mm 1 m/s 734 mmHg 33%
    14:00 +28°C° 0 mm 1 m/s 733 mmHg 33%
    15:00 +27°C° 0 mm 1 m/s 732 mmHg 36%
    16:00 +26°C° 0 mm 1 m/s 732 mmHg 39%
    17:00 +25°C° 0 mm 1 m/s 732 mmHg 42%
    18:00 +24°C° 0 mm 1 m/s 732 mmHg 45%
    19:00 +22°C° 0 mm 1 m/s 733 mmHg 47%
    20:00 +19°C° 0 mm 0 m/s 734 mmHg 50%
    21:00 +20°C° 0 mm 1 m/s 734 mmHg 52%
    22:00 +20°C° 0 mm 1 m/s 734 mmHg 53%
    23:00 +19°C° 0 mm 1 m/s 734 mmHg 55%

    Mâine, 25 Ianuarie, Sâmbătă

    Timp Temperatura Precipitaţii Vânt Presiune Umiditate
    00:00 +19°C° 0 mm 1 m/s 734 mmHg 56%
    01:00 +18°C° 0 mm 1 m/s 733 mmHg 57%
    02:00 +16°C° 0 mm 2 m/s 733 mmHg 59%
    03:00 +16°C° 0 mm 2 m/s 733 mmHg 59%
    04:00 +15°C° 0 mm 2 m/s 733 mmHg 59%
    05:00 +15°C° 0 mm 2 m/s 733 mmHg 59%
    06:00 +16°C° 0 mm 2 m/s 733 mmHg 56%
    07:00 +18°C° 0 mm 1 m/s 734 mmHg 53%
    08:00 +19°C° 0 mm 1 m/s 735 mmHg 50%
    09:00 +21°C° 0 mm 1 m/s 735 mmHg 44%
    10:00 +24°C° 0 mm 1 m/s 735 mmHg 37%
    11:00 +27°C° 0 mm 2 m/s 735 mmHg 30%
    12:00 +27°C° 0 mm 2 m/s 734 mmHg 28%
    13:00 +28°C° 0 mm 2 m/s 733 mmHg 25%
    14:00 +29°C° 0 mm 2 m/s 732 mmHg 23%
    15:00 +28°C° 0 mm 2 m/s 732 mmHg 25%
    16:00 +27°C° 0 mm 1 m/s 732 mmHg 28%
    17:00 +26°C° 0 mm 1 m/s 732 mmHg 31%
    18:00 +24°C° 0 mm 1 m/s 732 mmHg 32%
    19:00 +23°C° 0 mm 1 m/s 732 mmHg 34%
    20:00 +20°C° 0 mm 2 m/s 733 mmHg 35%
    21:00 +20°C° 0 mm 1 m/s 733 mmHg 36%
    22:00 +20°C° 0 mm 1 m/s 733 mmHg 38%
    23:00 +19°C° 0 mm 1 m/s 733 mmHg 39%

    Poimâine, 26 Ianuarie, Duminică

    Timp Temperatura Precipitaţii Vânt Presiune Umiditate
    00:00 +19°C° 0 mm 1 m/s 732 mmHg 40%
    01:00 +18°C° 0 mm 1 m/s 732 mmHg 41%
    02:00 +18°C° 0 mm 1 m/s 732 mmHg 41%
    03:00 +16°C° 0 mm 1 m/s 732 mmHg 42%
    04:00 +16°C° 0 mm 1 m/s 732 mmHg 42%
    05:00 +16°C° 0 mm 1 m/s 731 mmHg 43%
    06:00 +17°C° 0 mm 2 m/s 732 mmHg 42%
    07:00 +18°C° 0 mm 2 m/s 733 mmHg 41%
    08:00 +19°C° 0 mm 2 m/s 733 mmHg 39%
    09:00 +21°C° 0 mm 2 m/s 733 mmHg 35%
    10:00 +25°C° 0 mm 2 m/s 734 mmHg 30%
    11:00 +27°C° 0 mm 2 m/s 734 mmHg 25%
    12:00 +28°C° 0 mm 2 m/s 733 mmHg 24%
    13:00 +29°C° 0 mm 2 m/s 732 mmHg 22%
    14:00 +30°C° 0 mm 2 m/s 731 mmHg 21%
    15:00 +29°C° 0 mm 2 m/s 731 mmHg 24%
    16:00 +28°C° 0 mm 2 m/s 731 mmHg 27%
    17:00 +27°C° 0 mm 1 m/s 730 mmHg 30%
    18:00 +25°C° 0 mm 2 m/s 731 mmHg 32%
    19:00 +24°C° 0 mm 2 m/s 731 mmHg 35%
    20:00 +21°C° 0 mm 2 m/s 731 mmHg 37%
    21:00 +20°C° 0 mm 2 m/s 731 mmHg 38%
    22:00 +20°C° 0 mm 2 m/s 731 mmHg 38%
    23:00 +20°C° 0 mm 2 m/s 731 mmHg 39%

    27 Ianuarie, Luni

    Timp Temperatura Precipitaţii Vânt Presiune Umiditate
    00:00 +19°C° 0 mm 2 m/s 731 mmHg 40%
    01:00 +19°C° 0 mm 2 m/s 730 mmHg 41%
    02:00 +18°C° 0 mm 2 m/s 730 mmHg 43%
    03:00 +19°C° 0 mm 1 m/s 730 mmHg 44%
    04:00 +18°C° 0 mm 1 m/s 730 mmHg 45%
    05:00 +18°C° 0 mm 1 m/s 730 mmHg 46%
    06:00 +19°C° 0 mm 1 m/s 731 mmHg 44%
    07:00 +20°C° 0 mm 1 m/s 731 mmHg 42%
    08:00 +21°C° 0 mm 1 m/s 732 mmHg 40%
    09:00 +24°C° 0 mm 1 m/s 732 mmHg 35%
    10:00 +27°C° 0 mm 1 m/s 732 mmHg 30%
    11:00 +30°C° 0 mm 2 m/s 732 mmHg 25%
    12:00 +31°C° 0 mm 2 m/s 731 mmHg 23%
    13:00 +32°C° 0 mm 2 m/s 730 mmHg 22%
    14:00 +32°C° 0 mm 2 m/s 729 mmHg 20%
    15:00 +31°C° 0 mm 2 m/s 729 mmHg 23%
    16:00 +30°C° 0 mm 2 m/s 729 mmHg 25%
    17:00 +29°C° 0 mm 1 m/s 728 mmHg 28%
    18:00 +28°C° 0 mm 1 m/s 729 mmHg 30%
    19:00 +26°C° 0 mm 1 m/s 729 mmHg 32%
    20:00 +24°C° 0 mm 1 m/s 729 mmHg 34%
    21:00 +23°C° 0 mm 1 m/s 729 mmHg 36%
    22:00 +23°C° 0 mm 1 m/s 729 mmHg 38%
    23:00 +23°C° 0 mm 1 m/s 729 mmHg 39%

    28 Ianuarie, Marţi

    Timp Temperatura Precipitaţii Vânt Presiune Umiditate
    00:00 +22°C° 0 mm 1 m/s 729 mmHg 41%
    01:00 +22°C° 0 mm 1 m/s 729 mmHg 42%
    02:00 +21°C° 0 mm 1 m/s 728 mmHg 44%
    03:00 +21°C° 0 mm 1 m/s 728 mmHg 45%
    04:00 +20°C° 0 mm 1 m/s 728 mmHg 47%
    05:00 +20°C° 0 mm 1 m/s 728 mmHg 48%
    06:00 +21°C° 0 mm 1 m/s 729 mmHg 47%
    07:00 +22°C° 0 mm 1 m/s 729 mmHg 46%
    08:00 +23°C° 0 mm 1 m/s 730 mmHg 44%
    09:00 +25°C° 0 mm 2 m/s 730 mmHg 39%
    10:00 +27°C° 0 mm 3 m/s 730 mmHg 33%
    11:00 +29°C° 0 mm 4 m/s 730 mmHg 28%
    12:00 +30°C° 0 mm 4 m/s 729 mmHg 26%
    13:00 +32°C° 0 mm 4 m/s 729 mmHg 25%
    14:00 +33°C° 0 mm 5 m/s 728 mmHg 23%
    15:00 +32°C° 0 mm 4 m/s 728 mmHg 26%
    16:00 +30°C° 0 mm 4 m/s 728 mmHg 28%
    17:00 +28°C° 0 mm 4 m/s 728 mmHg 31%
    18:00 +27°C° 0 mm 3 m/s 729 mmHg 35%
    19:00 +25°C° 0 mm 3 m/s 729 mmHg 39%
    20:00 +23°C° 0 mm 2 m/s 730 mmHg 43%
    21:00 +21°C° 0 mm 2 m/s 730 mmHg 50%
    22:00 +20°C° 0 mm 2 m/s 730 mmHg 57%
    23:00 +19°C° 0 mm 2 m/s 730 mmHg 63%

    29 Ianuarie, Miercuri

    Timp Temperatura Precipitaţii Vânt Presiune Umiditate
    00:00 +18°C° 0 mm 2 m/s 730 mmHg 67%
    01:00 +17°C° 0 mm 2 m/s 730 mmHg 70%
    02:00 +17°C° 0 mm 2 m/s 730 mmHg 74%
    03:00 +16°C° 0 mm 1 m/s 730 mmHg 75%
    04:00 +15°C° 0 mm 1 m/s 731 mmHg 77%
    05:00 +15°C° 0 mm 1 m/s 731 mmHg 79%
    06:00 +16°C° 0 mm 1 m/s 732 mmHg 73%
    07:00 +16°C° 0 mm 0 m/s 732 mmHg 68%
    08:00 +17°C° 0 mm 0 m/s 733 mmHg 62%
    09:00 +21°C° 0 mm 1 m/s 733 mmHg 53%
    10:00 +23°C° 0 mm 1 m/s 734 mmHg 45%
    11:00 +25°C° 0 mm 2 m/s 734 mmHg 36%
    12:00 +26°C° 0 mm 2 m/s 733 mmHg 32%
    13:00 +27°C° 0 mm 3 m/s 732 mmHg 29%
    14:00 +28°C° 0 mm 3 m/s 732 mmHg 25%
    15:00 +27°C° 0 mm 3 m/s 732 mmHg 26%
    16:00 +26°C° 0 mm 2 m/s 732 mmHg 28%
    17:00 +25°C° 0 mm 2 m/s 732 mmHg 29%
    18:00 +24°C° 0 mm 1 m/s 732 mmHg 31%
    19:00 +22°C° 0 mm 1 m/s 733 mmHg 33%
    20:00 +20°C° 0 mm 1 m/s 733 mmHg 36%
    21:00 +19°C° 0 mm 1 m/s 733 mmHg 38%
    22:00 +18°C° 0 mm 1 m/s 733 mmHg 40%
    23:00 +16°C° 0 mm 1 m/s 733 mmHg 42%
    Arată mai mult